Regional Weather Roundup
Issued by NWS

Home | Current Version | Previous Version | Graphics & Text | Print | Product List | Glossary On
Versions: 1 2 3 4 5 6 7 8 9 10 11 12 13 14 15 16 17 18 19 20 21 22 23 24 25 26 27 28 29 30 31 32 33 34 35 36 37 38 39 40 41 42 43 44 45 46 47 48 49 50
000
ASUS43 KTOP 291608
RWRKS

WEATHER ROUNDUP FOR KANSAS
NATIONAL WEATHER SERVICE GOODLAND KS
1100 AM CDT WED JUL 29 2015

NOTE:  "FAIR" INDICATES FEW OR NO CLOUDS BELOW 12,000 FEET WITH NO
SIGNIFICANT WEATHER AND/OR OBSTRUCTIONS TO VISIBILITY.

KSZ001>006-013>018-027>032-041>047-291700-
NORTHWEST KANSAS

CITY           SKY/WX    TMP DP  RH WIND       PRES   REMARKS
GOODLAND       CLOUDY    72  49  44 E13       30.31R
HAYS           CLOUDY    72  55  56 NE20G29   30.13S
HILL CITY      PTSUNNY   74  56  53 NE12G21   30.20F
RUSSELL        CLOUDY    70  62  76 N15       30.16R
$$

KSZ061>065-074>080-084>089-291700-
SOUTHWEST KANSAS

CITY           SKY/WX    TMP DP  RH WIND       PRES   REMARKS
DODGE CITY     PTSUNNY   71  56  58 E22G33    30.18R
ELKHART          N/A     69  53  56 NE8         N/A
GARDEN CITY    PTSUNNY   71  55  56 E15       30.23R
GREAT BEND     CLOUDY    70  63  78 E16       30.17S
LIBERAL        PTSUNNY   73  57  56 E10       30.23R
PRATT          LGT RAIN  68  63  83 E9        30.16F
$$

KSZ066>073-081>083-090>101-291700-
SOUTHEAST KANSAS

CITY           SKY/WX    TMP DP  RH WIND       PRES   REMARKS
CHANUTE        SUNNY     85  70  60 SE10      30.09F
COFFEYVILLE    SUNNY     89  72  56 NE9       30.08F HX  96
HUTCHINSON     CLOUDY    72  67  84 NE8G21    30.14F
MEDICINE LODGE   N/A     75  69  81 NE15      30.13F
NEWTON         PTSUNNY   79  66  65 NE10      30.18S
PARSONS        SUNNY     87  71  58 VRB5      30.10F
WICHITA INTL   PTSUNNY   77  68  73 NE14      30.13F
WICHITA JABRA  PTSUNNY   77  70  79 N12       30.13F
WICHITA MCCONL PTSUNNY   79  67  65 NE12      30.14F
WINFIELD       MOSUNNY   87  67  51 NE14      30.12R
$$

KSZ007>012-019>026-033>040-048>060-102>105-291700-
NORTHEAST KANSAS

CITY           SKY/WX    TMP DP  RH WIND       PRES   REMARKS
CONCORDIA      CLOUDY    74  65  73 N10       30.20F
EMPORIA        CLOUDY    74  70  87 NW5       30.17R
LAWRENCE       CLOUDY    75  70  84 N9        30.13R
MANHATTAN      CLOUDY    75  69  81 VRB5      30.17F
MARYSVILLE     MOSUNNY   75  68  78 N5        30.19S
OLATHE IND     CLOUDY    74  71  91 NE9       30.13R
OLATHE EXE     CLOUDY    74  70  87 N12       30.12R
SALINA         CLOUDY    71  63  75 NE15G24   30.13F
TOPEKA BILLARD CLOUDY    77  71  82 NE5       30.15R
TOPEKA FORBES  CLOUDY    77  68  73 W5        30.16R
$$


USA.gov is the U.S. government's official web portal to all federal, state and local government web resources and services.